• In Russia
  • List of Countries
  • For 7 days
  • Water Temperature
  • Satellite Maps
  • Weather Map
  • Weather Widgets
  • user-avatar
    Login

    Hourly Weather Gold Coast

    Today, 20 November, Monday

    Time Temperature Precipitation Wind Pressure Humidity
    00:00 +17°C° 0.5 mm 4 mps 760 mmHg 92%
    01:00 +17°C° 0.5 mm 4 mps 759 mmHg 93%
    02:00 +17°C° 0.6 mm 4 mps 759 mmHg 94%
    03:00 +16°C° 0.6 mm 5 mps 759 mmHg 94%
    04:00 +16°C° 0 mm 5 mps 759 mmHg 94%
    05:00 +17°C° 0.3 mm 5 mps 760 mmHg 89%
    06:00 +19°C° 0.3 mm 6 mps 760 mmHg 84%
    07:00 +20°C° 0.3 mm 6 mps 760 mmHg 79%
    08:00 +22°C° 0.1 mm 6 mps 760 mmHg 70%
    09:00 +24°C° 0.1 mm 6 mps 760 mmHg 61%
    10:00 +26°C° 0 mm 6 mps 761 mmHg 54%
    11:00 +26°C° 0.3 mm 6 mps 760 mmHg 56%
    12:00 +26°C° 0.3 mm 6 mps 760 mmHg 57%
    13:00 +26°C° 0.3 mm 6 mps 760 mmHg 58%
    14:00 +24°C° 0.4 mm 6 mps 760 mmHg 64%
    15:00 +23°C° 0.4 mm 6 mps 760 mmHg 69%
    16:00 +22°C° 0.4 mm 6 mps 760 mmHg 75%
    17:00 +21°C° 0.2 mm 5 mps 760 mmHg 80%
    18:00 +20°C° 0.2 mm 5 mps 760 mmHg 84%
    19:00 +19°C° 0.2 mm 5 mps 761 mmHg 88%
    20:00 +18°C° 0.4 mm 4 mps 761 mmHg 90%
    21:00 +18°C° 0.4 mm 4 mps 761 mmHg 91%
    22:00 +17°C° 0.4 mm 4 mps 761 mmHg 92%
    23:00 +17°C° 0.5 mm 4 mps 761 mmHg 93%

    Tomorrow, 21 November, Tuesday

    Time Temperature Precipitation Wind Pressure Humidity
    00:00 +17°C° 0.5 mm 4 mps 760 mmHg 93%
    01:00 +16°C° 0.5 mm 5 mps 760 mmHg 94%
    02:00 +16°C° 0.5 mm 5 mps 760 mmHg 94%
    03:00 +16°C° 0.5 mm 5 mps 760 mmHg 94%
    04:00 +16°C° 0.5 mm 5 mps 760 mmHg 94%
    05:00 +17°C° 0.4 mm 5 mps 760 mmHg 91%
    06:00 +19°C° 0.4 mm 5 mps 760 mmHg 88%
    07:00 +20°C° 0.4 mm 5 mps 760 mmHg 85%
    08:00 +21°C° 0.3 mm 6 mps 760 mmHg 77%
    09:00 +22°C° 0.3 mm 6 mps 760 mmHg 70%
    10:00 +24°C° 0.3 mm 6 mps 760 mmHg 62%
    11:00 +24°C° 0.2 mm 6 mps 760 mmHg 58%
    12:00 +26°C° 0.2 mm 7 mps 760 mmHg 53%
    13:00 +27°C° 0.2 mm 7 mps 759 mmHg 49%
    14:00 +26°C° 0.1 mm 7 mps 759 mmHg 51%
    15:00 +26°C° 0.1 mm 7 mps 759 mmHg 53%
    16:00 +24°C° 0.1 mm 7 mps 758 mmHg 54%
    17:00 +23°C° 0 mm 6 mps 759 mmHg 62%
    18:00 +21°C° 0 mm 6 mps 759 mmHg 70%
    19:00 +19°C° 0 mm 5 mps 760 mmHg 77%
    20:00 +17°C° 0.1 mm 5 mps 760 mmHg 81%
    21:00 +17°C° 0.1 mm 5 mps 760 mmHg 84%
    22:00 +16°C° 0.1 mm 5 mps 760 mmHg 88%
    23:00 +17°C° 0.2 mm 4 mps 760 mmHg 89%

    Day after tomorrow, 22 November, Wednesday

    Time Temperature Precipitation Wind Pressure Humidity
    00:00 +17°C° 0.2 mm 4 mps 759 mmHg 91%
    01:00 +16°C° 0.2 mm 3 mps 759 mmHg 92%
    02:00 +15°C° 0.2 mm 4 mps 758 mmHg 92%
    03:00 +15°C° 0.2 mm 4 mps 758 mmHg 92%
    04:00 +15°C° 0.2 mm 4 mps 758 mmHg 93%
    05:00 +17°C° 0.3 mm 4 mps 758 mmHg 89%
    06:00 +19°C° 0.3 mm 4 mps 759 mmHg 85%
    07:00 +20°C° 0.3 mm 4 mps 759 mmHg 81%
    08:00 +21°C° 0.2 mm 4 mps 759 mmHg 73%
    09:00 +23°C° 0.2 mm 4 mps 759 mmHg 64%
    10:00 +25°C° 0.2 mm 4 mps 759 mmHg 56%
    11:00 +26°C° 0.3 mm 4 mps 758 mmHg 56%
    12:00 +26°C° 0.3 mm 4 mps 758 mmHg 57%
    13:00 +26°C° 0.3 mm 4 mps 757 mmHg 57%
    14:00 +25°C° 0.3 mm 4 mps 757 mmHg 60%
    15:00 +25°C° 0.3 mm 4 mps 757 mmHg 63%
    16:00 +23°C° 0.3 mm 4 mps 757 mmHg 66%
    17:00 +22°C° 0.1 mm 4 mps 757 mmHg 71%
    18:00 +21°C° 0.1 mm 3 mps 758 mmHg 76%
    19:00 +19°C° 0.1 mm 3 mps 758 mmHg 81%
    20:00 +19°C° 0 mm 3 mps 758 mmHg 82%
    21:00 +18°C° 0 mm 2 mps 759 mmHg 83%
    22:00 +18°C° 0 mm 2 mps 759 mmHg 84%
    23:00 +17°C° 0 mm 2 mps 758 mmHg 85%

    23 November, Thursday

    Time Temperature Precipitation Wind Pressure Humidity
    00:00 +17°C° 0 mm 2 mps 758 mmHg 86%
    01:00 +16°C° 0 mm 2 mps 757 mmHg 87%
    02:00 +16°C° 0 mm 2 mps 757 mmHg 88%
    03:00 +16°C° 0 mm 2 mps 757 mmHg 88%
    04:00 +16°C° 0 mm 2 mps 757 mmHg 89%
    05:00 +17°C° 0 mm 2 mps 757 mmHg 84%
    06:00 +19°C° 0 mm 3 mps 758 mmHg 79%
    07:00 +20°C° 0 mm 3 mps 758 mmHg 73%
    08:00 +24°C° 0 mm 3 mps 758 mmHg 64%
    09:00 +26°C° 0 mm 3 mps 758 mmHg 55%
    10:00 +28°C° 0 mm 3 mps 758 mmHg 46%
    11:00 +28°C° 0 mm 3 mps 758 mmHg 46%
    12:00 +28°C° 0 mm 3 mps 757 mmHg 45%
    13:00 +28°C° 0 mm 4 mps 757 mmHg 45%
    14:00 +28°C° 0 mm 4 mps 757 mmHg 48%
    15:00 +27°C° 0 mm 4 mps 757 mmHg 50%
    16:00 +26°C° 0 mm 4 mps 756 mmHg 53%
    17:00 +25°C° 0 mm 3 mps 757 mmHg 60%
    18:00 +22°C° 0 mm 3 mps 757 mmHg 66%
    19:00 +20°C° 0 mm 3 mps 758 mmHg 73%
    20:00 +19°C° 0 mm 2 mps 758 mmHg 76%
    21:00 +19°C° 0 mm 2 mps 758 mmHg 79%
    22:00 +18°C° 0 mm 2 mps 759 mmHg 82%
    23:00 +19°C° 0 mm 1 mps 758 mmHg 83%

    24 November, Friday

    Time Temperature Precipitation Wind Pressure Humidity
    00:00 +18°C° 0 mm 1 mps 758 mmHg 85%
    01:00 +18°C° 0 mm 1 mps 758 mmHg 87%
    02:00 +18°C° 0 mm 1 mps 758 mmHg 88%
    03:00 +17°C° 0 mm 2 mps 758 mmHg 89%
    04:00 +16°C° 0 mm 2 mps 758 mmHg 90%
    05:00 +18°C° 0 mm 2 mps 758 mmHg 83%
    06:00 +20°C° 0 mm 2 mps 758 mmHg 75%
    07:00 +23°C° 0 mm 2 mps 759 mmHg 67%
    08:00 +25°C° 0 mm 2 mps 759 mmHg 59%
    09:00 +28°C° 0 mm 2 mps 758 mmHg 50%
    10:00 +30°C° 0 mm 2 mps 758 mmHg 42%
    11:00 +30°C° 0 mm 3 mps 758 mmHg 41%
    12:00 +30°C° 0 mm 3 mps 757 mmHg 40%
    13:00 +32°C° 0 mm 4 mps 757 mmHg 39%
    14:00 +30°C° 0 mm 4 mps 757 mmHg 42%
    15:00 +29°C° 0 mm 4 mps 757 mmHg 45%
    16:00 +28°C° 0 mm 4 mps 756 mmHg 48%
    17:00 +26°C° 0 mm 4 mps 757 mmHg 57%
    18:00 +24°C° 0 mm 3 mps 758 mmHg 66%
    19:00 +21°C° 0 mm 3 mps 758 mmHg 75%
    20:00 +20°C° 0 mm 3 mps 758 mmHg 80%
    21:00 +19°C° 0 mm 2 mps 759 mmHg 84%
    22:00 +19°C° 0 mm 2 mps 759 mmHg 88%
    23:00 +18°C° 0 mm 2 mps 759 mmHg 89%

    25 November, Saturday

    Time Temperature Precipitation Wind Pressure Humidity
    00:00 +18°C° 0 mm 2 mps 758 mmHg 90%
    01:00 +18°C° 0 mm 2 mps 758 mmHg 92%
    02:00 +17°C° 0 mm 2 mps 758 mmHg 92%
    03:00 +17°C° 0 mm 2 mps 758 mmHg 92%
    04:00 +17°C° 0 mm 2 mps 758 mmHg 92%
    05:00 +19°C° 0 mm 2 mps 758 mmHg 84%
    06:00 +21°C° 0 mm 2 mps 758 mmHg 75%
    07:00 +24°C° 0 mm 3 mps 758 mmHg 66%
    08:00 +26°C° 0 mm 3 mps 758 mmHg 57%
    09:00 +28°C° 0 mm 3 mps 758 mmHg 48%
    10:00 +30°C° 0 mm 4 mps 758 mmHg 39%
    11:00 +30°C° 0 mm 4 mps 758 mmHg 37%
    12:00 +32°C° 0 mm 5 mps 757 mmHg 35%
    13:00 +33°C° 0 mm 5 mps 757 mmHg 33%
    14:00 +32°C° 0 mm 5 mps 757 mmHg 36%
    15:00 +30°C° 0 mm 5 mps 757 mmHg 38%
    16:00 +29°C° 0 mm 5 mps 757 mmHg 41%
    17:00 +27°C° 0 mm 5 mps 757 mmHg 53%
    18:00 +25°C° 0 mm 4 mps 758 mmHg 66%
    19:00 +21°C° 0 mm 4 mps 758 mmHg 78%
    20:00 +21°C° 0 mm 4 mps 759 mmHg 83%
    21:00 +20°C° 0 mm 3 mps 759 mmHg 89%
    22:00 +19°C° 0 mm 3 mps 759 mmHg 94%
    23:00 +20°C° 0 mm 3 mps 759 mmHg 95%
    Show more